Voltar ao catálogo

YAOGAN-36 04C

AtivoMilitarVLEO
NORAD 54750·PAYLOAD·🇨🇳 China

Lançado Dec 14, 2022 de Xichang Satellite Launch Center

Loading…

Próximas Passagens (próximas 24 horas)

TLE

AtualizadoSource: Space-Track

Época: Sep 14, 2026, 14:18 UTC

1 54750U 22171E   26257.59636906  .00014152  00000-0  40994-3 0  9992
2 54750  34.9812 331.9031 0005984 224.9307 135.0927 15.34698959209224

Acompanhe YAOGAN-36 04C em tempo real com AllMySat

Download on the App Store